Sterling, IL

1:27 AM CST on November 17, 2019 (GMT -0600)
Whiteside County-Bittorf

Weather History for KSQI - September, 2019

Change the Weather History Date:

Monday, September 16, 2019

  Actual Average Record
Temperature  
Mean Temperature 72 °F -  
Max Temperature 81 °F 73 °F 90 °F (2018)
Min Temperature 64 °F 49 °F 37 °F (2014)
Cooling Degree Days 8    
Growing Degree Days 22 (Base 50)    
Moisture  
Dew Point 68 °F    
Average Humidity 83    
Maximum Humidity 100    
Minimum Humidity 65    
Precipitation  
Precipitation 0.02 in - - ()
Sea Level Pressure  
Sea Level Pressure 30.08 in    
Wind  
Wind Speed 3 mph ()    
Max Wind Speed 12 mph    
Max Gust Speed -    
Visibility 4.4 miles    
Events Fog    
Averages and records for this station are not official NWS values.
T = Trace of Precipitation, MM = Missing Value Source: Averaged Metar Reports

Daily Weather History Graph

Daily Weather History Graph

Search for Another Location

Airport or City:

Astronomy

Sep. 16, 2019 Rise Set
Actual Time 6:39 AM CDT 7:06 PM CDT
Civil Twilight 6:11 AM CDT 7:34 PM CDT
Nautical Twilight 5:38 AM CDT 8:07 PM CDT
Astronomical Twilight 5:05 AM CDT 8:41 PM CDT
Moon 8:39 PM CDT (9/16) 8:48 AM CDT (9/16)
Length of Visible Light 13h 22m
Length of Day
12h 26m
Waning Gibbous, 94% of the Moon is Illuminated
Sep 16
Waning Gibbous
Sep 21
Last Quarter
Sep 28
New
Oct 5
First Quarter
Oct 13
Full

Hourly Weather History & Observations

Time (CDT) Temp. Heat Index Dew Point Humidity Pressure Visibility Wind Dir Wind Speed Gust Speed Precip Events Conditions
12:15 AM - - - N/A% 30.04 in 0.8 mi Calm Calm - N/A   Clear
12:18 AM - - - N/A% 30.04 in 1.2 mi North 3.5 mph - N/A   Clear
12:26 AM - - - N/A% 30.04 in 3.0 mi North 4.6 mph - N/A   Clear
12:56 AM - - - N/A% 30.05 in 5.0 mi Calm Calm - N/A   Haze
1:21 AM - - - N/A% 30.05 in 1.8 mi Calm Calm - N/A   Clear
1:25 AM - - - N/A% 30.06 in 0.8 mi Calm Calm - N/A   Clear
1:29 AM - - - N/A% 30.06 in 0.2 mi Calm Calm - N/A Fog Fog
1:45 AM - - - N/A% 30.06 in 0.2 mi Calm Calm - N/A Fog Fog
1:56 AM - - - N/A% 30.06 in 0.2 mi Calm Calm - N/A Fog Fog
2:01 AM - - - N/A% 30.06 in 0.8 mi Calm Calm - N/A   Mist
2:19 AM - - - N/A% - 0.5 mi Calm Calm - N/A Fog Fog
2:27 AM - - - N/A% 30.06 in 0.5 mi Calm Calm - N/A Fog Fog
2:36 AM - - - N/A% 30.06 in 0.2 mi Calm Calm - N/A Fog Fog
2:54 AM - - - N/A% 30.06 in 0.5 mi Calm Calm - N/A Fog Fog
2:56 AM - - - N/A% 30.06 in 0.5 mi Calm Calm - N/A Fog Fog
3:13 AM - - - N/A% 30.06 in 1.0 mi NNE 4.6 mph - N/A   Mostly Cloudy
3:16 AM - - - N/A% 30.06 in 2.5 mi NNE 4.6 mph - N/A   Mostly Cloudy
3:23 AM - - - N/A% 30.06 in 5.0 mi NNE 4.6 mph - N/A   Haze
3:56 AM - - - N/A% 30.07 in 6.0 mi NNE 5.8 mph - N/A   Haze
4:27 AM - - - N/A% - 5.0 mi NNE 4.6 mph - N/A   Haze
4:34 AM - - - N/A% 30.09 in 3.0 mi Calm Calm - N/A   Mostly Cloudy
4:45 AM - - - N/A% 30.09 in 1.8 mi NNE 4.6 mph - N/A   Mostly Cloudy
4:52 AM - - - N/A% 30.09 in 0.8 mi NE 4.6 mph - N/A   Overcast
4:56 AM - - - N/A% 30.09 in 0.8 mi NE 4.6 mph - N/A   Overcast
5:03 AM - - - N/A% 30.09 in 0.5 mi Calm Calm - N/A Fog Fog
5:14 AM - - - N/A% 30.09 in 0.2 mi NE 3.5 mph - N/A Fog Fog
5:56 AM - - - N/A% 30.09 in 0.2 mi NNE 4.6 mph - N/A Fog Fog
6:56 AM - - - N/A% 30.11 in 0.2 mi NE 6.9 mph - N/A Fog Fog
7:26 AM - - - N/A% 30.12 in 0.8 mi ENE 6.9 mph - N/A   Overcast
7:31 AM - - - N/A% 30.13 in 1.2 mi NE 5.8 mph - N/A   Overcast
7:41 AM - - - N/A% 30.13 in 2.5 mi NNE 6.9 mph - N/A   Overcast
7:56 AM - - - N/A% 30.13 in 3.0 mi ENE 3.5 mph - N/A   Overcast
8:08 AM - - - N/A% 30.14 in 2.5 mi NE 5.8 mph - N/A   Overcast
8:27 AM - - - N/A% 30.14 in 3.0 mi ENE 4.6 mph - N/A   Overcast
8:52 AM - - - N/A% 30.15 in 7.0 mi East 5.8 mph - 0.01 in   Overcast
8:56 AM - - - N/A% 30.15 in 8.0 mi East 4.6 mph - 0.01 in   Overcast
9:13 AM - - - N/A% 30.15 in 8.0 mi NNE 5.8 mph - N/A   Overcast
9:49 AM - - - N/A% 30.15 in 10.0 mi East 8.1 mph - N/A   Scattered Clouds
9:56 AM - - - N/A% 30.15 in 10.0 mi NE 9.2 mph - N/A   Partly Cloudy
10:56 AM 75.0 °F - 68.0 °F 79% 30.15 in 10.0 mi ENE 8.1 mph - N/A   Clear
11:56 AM 77.0 °F - 69.1 °F 76% 30.14 in 10.0 mi East 5.8 mph - N/A   Clear
12:56 PM 79.0 °F - 69.1 °F 72% 30.12 in 10.0 mi East 11.5 mph - N/A   Clear
1:56 PM 80.1 °F 82.9 °F 69.1 °F 69% 30.11 in 10.0 mi East 8.1 mph - N/A   Clear
2:56 PM 81.0 °F 83.8 °F 68.0 °F 65% 30.10 in 10.0 mi East 9.2 mph - N/A   Clear
3:56 PM 81.0 °F 83.8 °F 68.0 °F 65% 30.10 in 10.0 mi ENE 9.2 mph - N/A   Clear
4:56 PM 80.1 °F 82.9 °F 69.1 °F 69% 30.10 in 10.0 mi ENE 6.9 mph - N/A   Clear
5:56 PM 75.9 °F - 70.0 °F 82% 30.10 in 10.0 mi East 4.6 mph - N/A   Clear
6:56 PM 73.0 °F - 70.0 °F 90% 30.10 in 10.0 mi East 4.6 mph - N/A   Clear
7:56 PM 69.1 °F - 68.0 °F 96% 30.10 in 10.0 mi Calm Calm - 0.01 in   Clear
8:56 PM 66.9 °F - 66.0 °F 97% 30.11 in 10.0 mi Calm Calm - N/A   Clear
9:56 PM 64.9 °F - 64.9 °F 100% 30.12 in 10.0 mi Calm Calm - N/A   Clear
10:56 PM 64.0 °F - 64.0 °F 100% 29.72 in 9.0 mi ESE 3.5 mph - N/A   Clear
11:56 PM 64.0 °F - 64.0 °F 100% 29.72 in 6.0 mi ESE 3.5 mph - N/A   Clear